Regional Weather Roundup
Issued by NWS

Home | Current Version | Previous Version | Graphics & Text | Print | Product List | Glossary Off
Versions: 1 2 3 4 5 6 7 8 9 10 11 12 13 14 15 16 17 18 19 20 21 22 23 24 25 26 27 28 29 30 31 32 33 34 35 36 37 38 39 40 41 42 43 44 45 46 47 48 49 50

988
ASUS43 KLSX 270607
RWRMO

WEATHER SUMMARY FOR MISSOURI
NATIONAL WEATHER SERVICE SPRINGFIELD MO
100 AM CDT SAT MAY 27 2017

NOTE: "FAIR" INDICATES FEW OR NO CLOUDS BELOW 12,000 FEET WITH NO
       SIGNIFICANT WEATHER AND/OR OBSTRUCTIONS TO VISIBILITY.
       CURRENT SKY AND/OR WEATHER CONDITIONS ARE NOT AVAILABLE FOR
       CHILLICOTHE AND FARMINGTON.

MOZ001>031-035>038-043-044-053-054-270700-
...NORTHERN AND WESTERN MISSOURI...

CITY           SKY/WX    TMP DP  RH WIND       PRES   REMARKS
KANSAS CTY INT CLEAR     69  63  81 SE8       29.84S
6HR MIN TEMP:  69; 6HR MAX TEMP:  82;

KANSAS C DTWN  CLEAR     70  64  81 NE3       29.83S
6HR MIN TEMP:  70; 6HR MAX TEMP:  84;

LEE`S SUMMIT   CLEAR     69  66  90 E6        29.85S
6HR MIN TEMP:  69; 6HR MAX TEMP:  81;

ST JOSEPH      CLEAR     65  63  93 CALM      29.83S
6HR MIN TEMP:  65; 6HR MAX TEMP:  84;

CHILLICOTHE      N/A     64  64 100 CALM      29.86R
6HR MIN TEMP:  64; 6HR MAX TEMP:  83;

KIRKSVILLE     CLEAR     64  61  90 E6        29.87F
6HR MIN TEMP:  63; 6HR MAX TEMP:  78;


$$
MOZ066>068-077>081-088>096-101>105-270700-
...SOUTHWEST MISSOURI...

CITY           SKY/WX    TMP DP  RH WIND       PRES   REMARKS
SPRINGFIELD    CLOUDY    74  70  87 NE5       29.83F
6HR MIN TEMP:  73; 6HR MAX TEMP:  81;

JOPLIN         MOCLDY    74  69  85 E6        29.83S
6HR MIN TEMP:  73; 6HR MAX TEMP:  85;

BRANSON        TSTM      72  72 100 CALM      29.87S

$$
MOZ032>034-039>042-045>050-055>058-069>072-270700-
...CENTRAL MISSOURI...

CITY           SKY/WX    TMP DP  RH WIND       PRES   REMARKS
COLUMBIA       CLEAR     68  66  93 NE6       29.86R
6HR MIN TEMP:  67; 6HR MAX TEMP:  80;

JEFFERSON CITY CLEAR     69  65  86 CALM      29.85R
6HR MIN TEMP:  68; 6HR MAX TEMP:  83;

ROLLA          CLEAR     68  67  96 S7        29.87R
6HR MIN TEMP:  64; 6HR MAX TEMP:  75; 6HR PCP: TRACE;

SEDALIA        CLEAR     68  68 100 CALM      29.86S
6HR MIN TEMP:  68; 6HR MAX TEMP:  82;

WHITEMAN AFB   CLEAR     67  67 100 CALM      29.83F
WARRENSBURG    CLEAR     64  63  94 N3        29.84S FOG
OSAGE BEACH    CLEAR     67  67 100 SE5       29.87R

$$
MOZ051-052-059>065-270700-
...EAST CENTRAL MISSOURI...

CITY           SKY/WX    TMP DP  RH WIND       PRES   REMARKS
ST LOUIS INTL  NOT AVBL
SPIRIT OF STL  CLOUDY    71  70  96 NW7       29.84R
6HR MIN TEMP:  70; 6HR MAX TEMP:  78;

ST CHARLES     CLOUDY    73  68  84 CALM      29.84R
6HR MIN TEMP:  71; 6HR MAX TEMP:  79;


$$
MOZ072>076-082>087-097>100-106>115-270700-
...SOUTH CENTRAL AND SOUTHEAST MISSOURI...

CITY           SKY/WX    TMP DP  RH WIND       PRES   REMARKS
CAPE GIRARDEAU CLOUDY    71  67  87 CALM      29.86F
6HR MIN TEMP:  70; 6HR MAX TEMP:  73;

FARMINGTON     MOCLDY    69  67  93 CALM      29.88F
6HR MIN TEMP:  69; 6HR MAX TEMP:  73;

POPLAR BLUFF   CLOUDY    71  70  96 CALM      29.86S
6HR MIN TEMP:  71; 6HR MAX TEMP:  74;

WEST PLAINS    MOCLDY    72  69  90 CALM      29.88F
6HR MIN TEMP:  72; 6HR MAX TEMP:  76;


$$



USA.gov is the U.S. government's official web portal to all federal, state and local government web resources and services.